Tracking 32936 objects as of 16-Jan-2026
HD Live streaming from Space Station
objects crossing your sky now

STARLINK-2452

Track STARLINK-2452 now!
10-day predictions
STARLINK-2452 is classified as:


NORAD ID: 48115
Int'l Code: 2021-027Z
Perigee: 553.4 km
Apogee: 555.3 km
Inclination: 53.1 °
Period: 95.6 minutes
Semi major axis: 6925 km
RCS: Unknown
Launch date: April 7, 2021
Source: United States (US)
Launch site: AIR FORCE EASTERN TEST RANGE (AFETR)
Your satellite tracking list
Your tracking list is empty




NASA's NSSDC Master Catalog

Two Line Element Set (TLE):
1 48115U 21027Z   26015.46939015 -.00000262  00000-0  12866-5 0  9991
2 48115  53.0558  40.5418 0001401  83.7061 276.4087 15.06402127264532
Source of the keplerian elements: AFSPC